Regional Weather Roundup
Issued by NWS Midland/Odessa, TX

Skip options and go directly to product.
Home | Oldest Version | Previous Version | Current Version | All | Text Only | Save Text | Print | Product List | Glossary Off

Skip product version selection by date and time.   

943
ASUS44 KMAF 121401
RWRMAF
MIDLAND AREA WEATHER ROUNDUP
NATIONAL WEATHER SERVICE MIDLAND TX
800 AM CST FRI FEB 12 2016

...IN SOUTHWEST TEXAS AND SOUTHEAST NEW MEXICO...

CITY           SKY/WX    TMP DP  RH WIND       PRES   REMARKS
ALPINE         CLOUDY    37  17  45 SW9       30.37R WCI  30
ANDREWS        FAIR      35  25  67 NW3       30.27R
ARTESIA        CLOUDY    32  19  59 NW9       30.30R WCI  24
BIG SPRING     CLOUDY    31  23  72 CALM      30.29R
CARLSBAD       CLOUDY    35  20  54 N14       30.27R WCI  26
DRYDEN           N/A     47  20  34 NW5       30.22R
FORT STOCKTON  CLOUDY    44  23  43 W10       30.26R WCI  39
GUAD PASS      CLOUDY    49  13  23 S9        30.34R
HOBBS          CLEAR     32  25  74 N14       30.28R WCI  22
MARFA          CLOUDY    26  13  57 NW7       30.35R WCI  18
MIDLAND AIRPK  CLOUDY    36  28  71 W5        30.27R WCI  32
MIDLAND INTL   CLOUDY    33  26  75 NW6       30.27R WCI  28
ODESSA         CLOUDY    37  26  64 N8        30.27R WCI  31
PECOS          CLOUDY    30  20  64 CALM      30.27R
PRESIDIO       FAIR      44  16  31 N7        30.29R
SEMINOLE       CLOUDY    31  24  75 N7        30.28R WCI  24
SNYDER           N/A     37  30  75 NW6       30.27R WCI  32
WINK           CLOUDY    30  23  75 N7        30.26R WCI  23
$$
...OTHER STATIONS IN TEXAS...

CITY           SKY/WX    TMP DP  RH WIND       PRES   REMARKS
ABILENE        CLOUDY    34  30  85 CALM      30.27R
AMARILLO       CLOUDY    32  25  75 N9        30.31R WCI  24
AUSTIN         CLEAR     43  42  97 CALM      30.22R
BROWNSVILLE    FOG       55  55 100 S5        30.21R VSB 1/4
CORPUS CHRISTI FOG       53  53 100 SE8       30.20R VSB 1/2
DALLAS FTW     PTCLDY    45  36  70 N7        30.23R
DEL RIO        CLEAR     41  32  70 CALM      30.20R
EL PASO        MOCLDY    37  15  40 N3        30.30R
HOUSTON INT    MOSUNNY   59  56  89 CALM      30.23R
LUBBOCK        CLOUDY    32  22  66 N3        30.27R
SAN ANGELO     CLOUDY    32  24  72 SW3       30.26R
SAN ANTONIO    CLEAR     46  41  82 NW5       30.21R
WACO           CLEAR     45  38  76 N7        30.22R
WICHITA FALLS  NOT AVBL
$$
...OTHER LOCATIONS IN NEW MEXICO...

CITY           SKY/WX    TMP DP  RH WIND       PRES   REMARKS
ALAMAGORDO     CLOUDY    28   9  43 E6        30.32R WCI  22
ALBUQUERQUE    CLOUDY    34  20  56 W6        30.40R WCI  29
CANNON AFB     CLOUDY    35  24  63 N15       30.28R WCI  26
CLOVIS         CLOUDY    34  21  60 N16       30.29S WCI  23
HOLLOMAN AFB   CLOUDY    30   8  40 SE7       30.30R WCI  23
ROSWELL        CLOUDY    33  16  49 N6        30.30R WCI  28
RUIDOSO          N/A     41   1  19 NW7       30.39R WCI  36
SANTA FE       CLOUDY    29  19  66 NE12      30.39R WCI  19
TRUTH OR CONSE CLEAR     38  13  35 CALM      30.35R
TUCUMCARI      CLOUDY    34  23  64 N9        30.32R WCI  27
$$

USA.gov is the U.S. government's official web portal to all federal, state and local government web resources and services.